Location: La Fredeussais
(48.1780°N, 1.3980°W)
Time: 18:25:41
(UTC+00:00)

USA 308 - Pass Details

Date: 09 May 2021
Orbit: 568 x 576 km, 54.0° (Epoch: 10 May)

Event Time Altitude Azimuth Distance (km) Brightness Sun altitude
Rises 21:16:14 0° 296° (WNW) 2,785 7.7 -14.5°
Reaches altitude 10° 21:18:32 10° 301° (WNW) 1,886 6.7 -14.8°
Maximum altitude 21:22:45 56° 20° (NNE) 690 3.4 -15.2°
Enters shadow 21:25:49 18° 95° (E) 1,447 4.6 -15.6°
